Wind_Speed
52 55 58 59 59 60 60 60 60 58 58 60 60 61 59 59 58 57 55 54 52 50 48 47 45 44 43 41 39 38 37 37 36 35 34 33 33 33 33 33 32 32 32 32
51 54 54 56 58 58 59 59 58 57 57 59 61 62 62 62 60 59 57 55 54 53 51 50 48 46 44 42 41 39 38 38 37 36 35 35 35 35 34 34 34 34 34 35
49 49 51 55 58 58 59 58 58 57 56 58 61 64 63 63 62 61 60 57 56 54 53 52 50 48 46 44 42 41 40 39 38 37 37 37 36 35 35 35 36 36 37 37
46 46 50 55 57 57 57 55 55 56 57 58 59 63 64 63 63 62 61 59 57 55 54 53 52 51 49 46 45 43 41 40 39 39 38 38 37 36 36 37 38 38 38 38
43 45 49 53 55 56 54 53 54 56 57 57 58 62 63 63 63 61 60 59 57 56 54 53 52 51 50 48 47 45 43 42 41 41 40 39 38 38 38 38 39 39 39 39
41 43 47 49 50 53 53 53 54 55 56 59 57 60 63 62 60 59 58 58 57 55 54 54 53 52 51 50 48 47 45 44 43 42 41 40 39 39 39 39 39 39 39 39
39 41 44 48 49 50 52 53 53 54 56 59 56 60 63 58 56 56 56 56 56 55 55 54 53 52 52 51 49 48 47 45 44 43 42 41 40 40 40 40 40 40 39 39
35 38 42 46 48 49 52 54 55 54 54 55 57 60 59 55 53 54 55 55 55 55 55 54 53 52 51 50 49 48 47 46 44 43 42 42 41 41 41 40 40 40 39 39
34 36 40 43 45 48 51 54 54 52 49 48 53 54 54 54 51 51 52 53 54 54 54 53 52 51 51 50 49 48 46 46 44 43 43 42 42 41 41 40 40 40 39 39
33 34 37 40 42 45 47 49 52 54 52 49 47 47 51 51 48 48 49 50 51 53 53 53 52 51 50 50 49 48 47 46 45 44 43 42 42 41 40 40 40 39 39 38
32 32 33 38 42 43 44 47 50 51 52 50 47 45 44 46 46 46 46 47 49 51 52 52 50 49 49 48 48 47 47 46 45 44 43 42 42 41 40 39 39 38 38 37
31 31 31 33 39 41 42 45 48 49 50 48 46 44 42 41 43 44 44 45 46 48 50 51 50 48 48 47 47 46 46 45 43 42 42 42 41 40 40 39 38 37 37 36
30 31 31 31 36 39 40 42 45 46 46 46 45 45 41 39 39 40 42 43 44 45 47 48 48 47 47 47 47 45 45 43 43 42 42 41 40 39 38 37 37 36 36 35
29 31 33 32 32 37 39 41 42 45 46 44 43 43 41 37 37 37 38 40 42 43 44 45 46 45 45 45 45 44 42 42 41 41 40 39 38 37 36 36 35 35 35 34
29 31 33 34 33 34 36 38 40 43 44 43 40 42 40 39 37 36 36 38 40 41 42 42 43 43 42 42 42 41 41 40 40 39 39 38 37 36 36 35 35 34 35 34
28 30 32 32 33 33 34 35 38 40 42 44 42 41 41 40 39 36 35 36 38 39 40 40 41 41 41 40 40 39 39 38 38 37 37 36 35 35 34 34 34 34 34 33
25 28 30 31 33 33 34 35 35 37 40 42 44 42 42 40 38 37 36 36 37 39 39 39 39 39 39 39 38 38 37 37 36 35 35 34 34 33 33 33 33 33 32 32
24 27 30 31 32 33 31 34 35 36 38 41 44 44 42 40 40 39 39 38 38 39 40 39 39 39 39 39 38 37 37 36 35 34 34 33 33 32 32 32 32 32 31 31
24 25 27 29 31 32 30 32 35 36 38 41 43 44 44 41 42 42 40 40 41 41 41 40 39 39 39 38 38 37 36 35 34 33 33 32 32 31 31 31 31 30 30 30
25 25 26 28 29 30 30 30 33 36 38 40 42 43 44 43 44 42 42 42 41 41 41 40 39 39 39 38 37 36 35 34 33 32 32 31 31 30 30 30 30 30 30 30
24 25 26 28 30 30 29 30 33 35 37 39 41 42 43 44 43 42 43 44 42 41 42 41 40 39 38 37 35 34 33 33 32 32 31 30 30 29 29 29 29 29 29 29
23 23 26 28 31 31 30 31 33 33 36 37 39 41 42 43 43 44 44 44 43 42 42 42 41 39 37 35 35 34 33 33 32 31 30 30 29 29 29 29 28 28 28 28
24 25 26 28 29 31 33 32 34 35 35 37 38 40 41 42 43 44 44 43 43 43 43 42 41 39 37 36 35 34 34 33 31 31 30 29 29 28 28 28 28 28 28 28
25 27 28 29 29 31 34 34 35 37 36 36 37 39 40 40 41 42 43 43 43 43 42 41 40 39 38 36 34 34 33 32 31 31 30 29 28 28 27 27 27 27 28 28
25 28 30 29 29 32 34 35 36 38 38 36 36 38 39 38 39 41 41 42 41 41 41 40 39 38 37 36 34 33 32 31 31 30 30 29 28 28 28 27 27 27 28 27
26 27 30 30 30 34 35 36 37 39 40 38 37 37 38 38 38 39 38 39 39 39 40 40 39 38 37 36 35 34 32 32 31 30 29 29 28 28 27 27 27 28 28 28
Wind_Direction
234 233 231 229 231 232 232 233 233 233 232 232 231 230 227 226 226 224 224 223 222 222 222 222 223 224 226 227 228 230 231 233 235 237 239 241 244 247 250 254 258 261 265 268
233 232 231 229 229 230 231 232 233 232 231 232 231 230 227 226 225 224 224 224 223 222 222 223 224 225 227 228 229 231 233 235 237 239 241 243 245 249 252 255 259 262 264 268
232 232 229 228 227 227 229 230 231 232 232 233 232 231 228 226 225 224 223 223 224 223 223 224 224 226 227 229 230 232 234 236 238 240 242 244 247 250 253 257 259 262 265 268
232 229 227 226 225 226 229 228 230 231 233 233 233 233 227 226 226 225 224 224 224 225 225 225 226 226 228 229 231 233 234 236 238 241 243 245 248 251 254 257 260 263 266 269
232 229 227 226 225 225 227 227 229 230 233 235 234 235 229 226 226 225 224 225 225 226 226 226 227 227 228 229 231 233 234 236 238 241 244 247 249 251 254 258 261 264 267 270
231 229 227 226 224 225 225 226 228 230 233 236 233 236 232 226 225 225 225 226 226 226 227 227 227 227 228 229 231 233 235 237 239 242 245 247 250 252 255 258 261 264 267 269
232 229 226 224 222 222 223 223 226 228 232 235 232 235 233 226 225 226 226 226 226 227 227 227 227 228 230 231 232 234 236 238 239 242 244 246 249 252 255 258 261 264 266 269
234 231 227 224 222 222 222 222 223 227 232 235 234 235 233 227 224 224 225 226 226 227 228 228 228 229 230 232 233 234 235 237 239 241 243 246 249 252 255 258 261 263 266 268
235 232 227 225 222 222 222 222 223 227 230 233 236 234 231 227 224 222 224 226 226 227 228 229 229 229 231 232 234 235 236 237 239 241 243 245 248 251 254 257 259 262 265 268
236 233 228 225 223 221 222 223 223 225 228 231 234 231 229 226 224 221 222 224 226 227 228 229 230 230 231 232 233 235 237 238 239 241 243 245 248 250 253 256 258 261 264 266
235 234 228 225 222 221 221 221 223 225 229 232 234 230 225 225 224 222 221 222 223 225 227 228 230 231 231 232 233 234 236 238 239 241 243 245 247 249 252 255 258 260 262 264
233 232 225 223 220 221 222 223 223 225 228 229 231 229 222 224 224 222 221 221 222 224 225 226 227 228 230 232 233 234 235 237 239 241 243 245 247 249 251 254 257 258 261 263
232 231 226 222 220 220 220 220 221 223 226 227 226 225 221 222 222 223 222 220 220 222 223 224 225 227 229 230 232 233 235 237 238 241 243 246 248 250 252 254 255 257 260 263
231 231 227 224 220 220 221 220 221 221 223 223 221 222 219 220 219 219 219 219 218 219 220 221 223 225 227 229 231 233 234 235 237 239 242 245 247 249 251 253 254 257 260 264
232 230 229 227 223 220 221 221 222 222 221 220 216 218 217 218 217 216 216 216 216 216 217 218 220 222 225 227 229 231 232 234 236 239 241 243 246 248 250 251 254 257 260 263
233 230 228 226 224 222 221 220 220 220 220 219 217 216 214 217 216 214 212 212 212 213 214 216 217 220 222 225 227 229 231 233 235 238 240 242 244 246 248 251 254 257 260 262
235 232 228 225 223 222 222 220 218 217 218 218 217 214 214 214 214 213 211 210 210 210 212 214 216 219 221 224 226 228 231 233 235 237 238 241 243 246 248 250 253 256 259 262
235 235 231 227 226 226 221 220 220 218 215 216 216 216 215 213 212 211 211 210 209 210 212 213 216 219 221 224 226 228 230 232 234 236 238 239 242 244 247 250 254 257 259 262
233 233 232 229 227 225 221 219 219 219 217 215 215 215 215 211 210 209 207 208 208 210 212 214 216 218 220 223 225 227 229 231 233 235 237 239 241 244 247 250 253 256 259 261
233 232 232 227 225 222 218 218 218 219 218 215 215 215 215 213 211 209 208 207 208 209 212 214 216 218 220 221 223 225 227 230 232 235 238 240 242 244 247 250 253 255 258 261
233 232 232 229 225 219 214 216 217 219 216 216 215 216 216 216 212 209 210 209 209 210 212 214 217 220 221 222 224 225 227 230 233 236 238 241 243 245 248 250 252 256 259 262
231 230 230 229 224 219 215 215 216 217 218 218 216 216 217 216 212 210 211 211 210 211 212 214 218 220 222 222 224 225 228 230 233 236 238 241 243 246 249 251 254 257 261 264
229 227 226 225 222 218 218 217 215 215 217 217 217 216 217 215 212 211 211 212 211 211 214 215 217 219 221 223 224 226 228 231 233 236 239 242 245 248 250 253 256 259 263 267
231 228 226 223 219 218 216 216 215 214 215 215 215 215 214 213 212 211 211 212 211 209 212 215 216 218 221 223 225 226 228 231 234 237 240 243 246 248 251 254 258 262 266 270
232 231 228 224 217 216 217 215 214 215 215 214 212 212 211 211 210 210 211 213 212 210 212 214 215 218 220 222 224 225 228 231 235 238 241 244 246 249 252 255 260 264 268 271
232 233 229 223 217 216 215 215 213 213 213 212 210 209 210 210 209 209 209 210 212 212 211 212 213 216 218 221 223 225 228 232 235 238 242 244 247 250 253 258 262 265 268 272
Height
5586 5591 5597 5609 5618 5628 5635 5641 5648 5658 5664 5668 5675 5683 5693 5699 5705 5713 5720 5727 5735 5742 5748 5753 5758 5762 5767 5771 5776 5780 5783 5786 5789 5792 5795 5798 5799 5801 5803 5804 5805 5806 5806 5806
5571 5577 5591 5599 5605 5612 5619 5626 5635 5644 5650 5655 5661 5668 5677 5684 5692 5701 5709 5717 5725 5732 5737 5743 5749 5754 5759 5764 5768 5772 5776 5779 5783 5786 5788 5790 5792 5794 5796 5797 5798 5799 5799 5799
5558 5571 5579 5584 5590 5598 5605 5615 5625 5632 5638 5641 5647 5652 5662 5672 5680 5688 5697 5705 5713 5721 5728 5734 5740 5745 5751 5756 5761 5765 5768 5772 5775 5778 5780 5782 5785 5787 5789 5790 5791 5791 5791 5791
5547 5558 5563 5569 5577 5586 5595 5606 5614 5620 5624 5628 5634 5638 5650 5660 5667 5676 5686 5695 5703 5711 5718 5724 5730 5736 5742 5748 5752 5756 5760 5764 5767 5769 5772 5775 5778 5780 5781 5782 5782 5783 5783 5783
5538 5546 5551 5557 5568 5577 5587 5596 5602 5607 5611 5615 5620 5625 5637 5646 5655 5666 5677 5686 5694 5701 5708 5715 5721 5727 5732 5737 5742 5747 5751 5755 5758 5761 5765 5767 5770 5772 5772 5773 5774 5775 5775 5775
5528 5534 5539 5548 5559 5566 5576 5583 5589 5594 5597 5599 5609 5613 5621 5635 5648 5659 5668 5676 5683 5690 5697 5704 5710 5715 5721 5727 5732 5737 5742 5746 5750 5753 5756 5759 5761 5763 5764 5765 5766 5766 5767 5767
5519 5524 5530 5537 5545 5553 5561 5569 5576 5580 5582 5588 5600 5600 5610 5630 5641 5649 5657 5665 5672 5679 5685 5692 5698 5705 5711 5717 5723 5728 5733 5737 5741 5744 5747 5750 5752 5754 5755 5757 5757 5758 5759 5759
5511 5517 5522 5528 5535 5543 5551 5558 5565 5571 5576 5584 5588 5589 5606 5621 5630 5637 5645 5652 5659 5666 5674 5681 5688 5695 5701 5707 5713 5718 5723 5727 5731 5735 5738 5741 5743 5745 5747 5748 5749 5750 5750 5750
5502 5508 5514 5520 5527 5534 5540 5546 5557 5563 5567 5572 5575 5586 5598 5608 5618 5626 5634 5641 5648 5656 5663 5670 5677 5684 5690 5697 5702 5708 5713 5717 5721 5725 5728 5731 5734 5736 5738 5739 5740 5741 5742 5742
5495 5499 5505 5511 5517 5523 5531 5540 5546 5550 5556 5561 5567 5577 5588 5599 5609 5617 5624 5631 5638 5645 5652 5659 5666 5673 5679 5686 5692 5697 5702 5707 5711 5715 5719 5722 5724 5727 5728 5730 5731 5732 5733 5733
5488 5492 5497 5502 5508 5515 5523 5529 5534 5541 5548 5555 5562 5573 5583 5591 5599 5606 5614 5620 5627 5634 5641 5649 5656 5663 5669 5675 5681 5687 5692 5697 5701 5706 5709 5712 5715 5717 5719 5721 5722 5723 5724 5724
5481 5485 5489 5495 5502 5507 5513 5519 5526 5533 5539 5547 5555 5567 5574 5581 5588 5595 5603 5610 5616 5623 5630 5638 5645 5652 5658 5665 5671 5676 5682 5687 5692 5696 5699 5702 5705 5708 5710 5712 5713 5714 5715 5715
5474 5478 5483 5488 5495 5498 5503 5509 5516 5524 5532 5538 5546 5559 5566 5572 5579 5586 5593 5600 5607 5613 5620 5628 5635 5642 5649 5655 5661 5667 5672 5678 5682 5686 5690 5693 5696 5699 5701 5703 5705 5705 5706 5707
5467 5471 5475 5480 5483 5489 5495 5502 5508 5515 5522 5530 5540 5550 5558 5565 5570 5577 5584 5590 5598 5604 5611 5618 5626 5633 5639 5646 5652 5658 5663 5668 5673 5677 5680 5684 5688 5690 5693 5694 5696 5697 5698 5699
5460 5464 5467 5472 5477 5482 5488 5495 5501 5507 5516 5525 5535 5541 5550 5556 5562 5569 5575 5582 5589 5596 5603 5610 5618 5624 5631 5637 5643 5649 5654 5659 5664 5668 5672 5676 5679 5682 5684 5686 5687 5689 5690 5690
5453 5457 5462 5467 5470 5475 5481 5487 5494 5501 5509 5517 5525 5533 5541 5546 5553 5560 5567 5574 5581 5588 5596 5603 5609 5616 5622 5629 5635 5640 5646 5651 5655 5659 5664 5667 5670 5673 5675 5677 5679 5680 5681 5682
5447 5451 5456 5460 5463 5468 5475 5481 5487 5494 5502 5510 5517 5527 5531 5538 5546 5553 5560 5567 5574 5581 5588 5595 5602 5608 5615 5621 5627 5632 5637 5642 5647 5651 5655 5659 5662 5665 5667 5669 5670 5672 5673 5673
5442 5445 5448 5453 5458 5463 5472 5475 5480 5487 5495 5502 5508 5515 5523 5531 5538 5545 5552 5560 5567 5574 5581 5587 5594 5601 5607 5613 5619 5624 5629 5634 5639 5643 5647 5650 5653 5656 5658 5660 5662 5664 5664 5665
5436 5439 5442 5447 5451 5456 5463 5468 5474 5480 5486 5492 5499 5507 5514 5522 5529 5537 5544 5552 5559 5566 5573 5580 5587 5593 5599 5605 5611 5617 5622 5627 5631 5635 5639 5642 5645 5648 5650 5652 5654 5655 5656 5657
5430 5432 5437 5440 5444 5450 5458 5462 5466 5473 5478 5484 5491 5498 5506 5513 5521 5531 5538 5545 5552 5559 5566 5573 5580 5586 5592 5598 5604 5610 5615 5619 5624 5628 5631 5634 5638 5640 5643 5645 5646 5647 5648 5649
5423 5426 5429 5433 5436 5443 5451 5455 5459 5466 5472 5477 5483 5490 5497 5505 5515 5525 5530 5538 5545 5552 5559 5566 5573 5579 5585 5592 5597 5603 5608 5612 5616 5620 5624 5627 5630 5633 5635 5637 5638 5640 5641 5641
5417 5419 5423 5426 5430 5439 5443 5446 5452 5457 5463 5469 5475 5482 5490 5498 5507 5515 5523 5530 5538 5545 5552 5558 5566 5572 5579 5585 5591 5596 5601 5605 5609 5613 5617 5620 5623 5625 5627 5629 5631 5632 5633 5633
5409 5413 5415 5419 5425 5429 5433 5438 5443 5449 5455 5461 5468 5475 5483 5491 5499 5508 5516 5523 5531 5538 5545 5552 5558 5566 5572 5578 5584 5589 5594 5598 5602 5606 5609 5613 5615 5618 5620 5622 5623 5624 5625 5625
5402 5404 5407 5411 5417 5421 5425 5430 5435 5442 5448 5454 5461 5468 5476 5483 5492 5500 5508 5516 5524 5531 5538 5545 5552 5559 5565 5571 5577 5582 5587 5592 5596 5599 5603 5606 5608 5610 5613 5614 5616 5617 5617 5617
5395 5397 5399 5403 5409 5413 5418 5422 5428 5434 5441 5447 5454 5461 5469 5477 5485 5493 5501 5510 5517 5524 5531 5538 5545 5552 5558 5564 5570 5576 5580 5585 5589 5592 5596 5598 5601 5603 5605 5607 5608 5609 5609 5610
5387 5389 5392 5396 5401 5404 5409 5414 5420 5426 5434 5441 5448 5455 5463 5471 5479 5487 5495 5503 5510 5518 5525 5531 5538 5545 5552 5558 5563 5569 5574 5578 5582 5585 5589 5591 5594 5596 5598 5599 5600 5601 5601 5601